Flag for U.S.A. Weather past 2 weeks in Manassas, Virginia, U.S.A.

Now
39 °F

Clear.


Feels Like: 39 °F
Forecast: 42 / 63 °F
Wind: No wind

Location: Manassas Municipal


UV Index: 5 (Moderate)

Visibility: 10 mi


Pressure: 30.33 "Hg

Humidity: 100%

Dew point: 39 °F

Location of ManassasLocation

Historic Weather in Manassas

°F

Manassas temperature yesterday

Maximum temperature yesterday: 70 °F (at 3:35 PM)
Minimum temperature yesterday: 39 °F (at 4:35 AM)
Average temperature yesterday: 55 °F

Past Weeks' High & Low Weather Summary

 TemperatureHumidityPressure
High84 °F (Apr 13, 2:45 PM)100% (Apr 5, 4:15 AM)30.65 "Hg (Apr 5, 4:15 AM)
Low27 °F (Apr 17, 5:55 AM)19% (Apr 12, 12:15 PM)29.49 "Hg (Apr 8, 5:55 AM)
Average52 °F64%30.12 "Hg
* Reported Apr 5 4:15 AM — Apr 20 4:35 AM, Manassas, Weather by CustomWeather, © 2014

Note: Actual official high and low records may vary slightly from our data, if they occured in-between our weather recording intervals... More about our weather records

Advertising

Historic Weather Conditions — Data for Previous 24 hours

 ConditionsComfort  
Time TempWeatherWind HumidityBarometerVisibility
4:35 AM
Apr 20
41 °FClear.No wind93%30.34 "Hg10 mi
4:15 AM43 °FClear.No wind87%30.33 "Hg10 mi
3:55 AM43 °FClear.No wind87%30.33 "Hg10 mi
3:35 AM43 °FClear.No wind81%30.32 "Hg10 mi
3:15 AM43 °FClear.No wind81%30.32 "Hg10 mi
2:55 AM45 °FClear.No wind76%30.31 "Hg10 mi
2:35 AM45 °FClear.No wind76%30.31 "Hg10 mi
2:15 AM45 °FClear.No wind76%30.32 "Hg10 mi
1:55 AM43 °FClear.No wind87%30.32 "Hg10 mi
1:35 AM45 °FClear.No wind76%30.32 "Hg10 mi
1:15 AM46 °FClear.No wind71%30.32 "Hg10 mi
12:55 AM45 °FClear.No wind76%30.32 "Hg10 mi
12:35 AM52 °FClear.3 mph44%30.31 "Hg10 mi
12:15 AM48 °FClear.6 mph58%30.30 "Hg10 mi
11:55 PM
Apr 19
48 °FClear.No wind58%30.31 "Hg10 mi
11:35 PM52 °FClear.3 mph44%30.31 "Hg10 mi
11:15 PM54 °FClear.5 mph38%30.30 "Hg10 mi
10:55 PM55 °FClear.7 mph33%30.30 "Hg10 mi
10:35 PM55 °FClear.6 mph33%30.30 "Hg10 mi
10:15 PM55 °FClear.7 mph33%30.29 "Hg10 mi
9:55 PM57 °FClear.6 mph31%30.28 "Hg10 mi
9:35 PM57 °FClear.7 mph31%30.28 "Hg10 mi
9:15 PM59 °FClear.6 mph27%30.28 "Hg10 mi
8:55 PM61 °FClear.7 mph25%30.26 "Hg10 mi
8:35 PM61 °FSunny.7 mph25%30.26 "Hg10 mi
8:15 PM63 °FSunny.9 mph25%30.25 "Hg10 mi
7:55 PM63 °FSunny.7 mph27%30.25 "Hg10 mi
7:35 PM64 °FSunny.9 mph26%30.25 "Hg10 mi
7:15 PM64 °FSunny.9 mph28%30.24 "Hg10 mi
6:55 PM66 °FSunny.10 mph28%30.23 "Hg10 mi
6:35 PM66 °FSunny.10 mph28%30.23 "Hg10 mi
6:15 PM66 °FSunny.8 mph30%30.23 "Hg10 mi
5:55 PM66 °FSunny.8 mph30%30.23 "Hg10 mi
5:35 PM68 °FSunny.8 mph28%30.22 "Hg10 mi
5:15 PM68 °FSunny.8 mph28%30.22 "Hg10 mi
4:55 PM70 °FSunny.9 mph29%30.22 "Hg10 mi
4:35 PM70 °FSunny.10 mph31%30.21 "Hg10 mi
4:15 PM70 °FSunny.10 mph29%30.21 "Hg10 mi
3:55 PM70 °FSunny.6 mph31%30.22 "Hg10 mi
3:35 PM70 °FSunny.10 mph31%30.22 "Hg10 mi
3:15 PM68 °FSunny.No wind30%30.23 "Hg10 mi
2:55 PM68 °FSunny.5 mph30%30.24 "Hg10 mi
2:35 PM68 °FSunny.14 mph33%30.24 "Hg10 mi
2:15 PM68 °FSunny.9 mph33%30.25 "Hg10 mi
1:55 PM68 °FSunny.13 mph33%30.25 "Hg10 mi
1:35 PM66 °FSunny.9 mph35%30.26 "Hg10 mi
1:15 PM64 °FSunny.7 mph37%30.26 "Hg10 mi
11:45 AM57 °FSunny.6 mph55%30.28 "Hg10 mi
6:50 AM39 °FClear.No wind100%30.27 "Hg10 mi
6:15 AM39 °FClear.No wind100%30.27 "Hg10 mi
5:55 AM41 °FClear.No wind100%30.25 "Hg10 mi
5:35 AM39 °FClear.No wind100%30.24 "Hg10 mi
5:15 AM41 °FClear.No wind93%30.24 "Hg10 mi
Weather by CustomWeather, © 2014

See weather overview